Regional Weather Roundup
Issued by NWS Green Bay, WI

Home | Current Version | Previous Version | Text Only | Print | Product List | Glossary On
Versions: 1 2 3 4 5 6 7 8 9 10 11 12 13 14 15 16 17 18 19 20 21 22 23 24 25 26 27 28 29 30 31 32 33 34 35 36 37 38 39 40 41 42 43 44 45 46 47 48 49 50
000
ASUS43 KGRB 240400
RWRGRB

NORTH-CENTRAL AND NORTHEAST WISCONSIN REGIONAL WEATHER ROUNDUP
NATIONAL WEATHER SERVICE GREEN BAY WI
1000 PM CST THU NOV 23 2017

WIZ005-009-010>012-018-019-240500-
NORTH CENTRAL WISCONSIN

CITY           SKY/WX    TMP DP  RH WIND       PRES   REMARKS
IRONWOOD       CLOUDY    37  25  61 SW12      29.59F
MANITOWISH WTR NOT AVBL
ARBOR VITAE    NOT AVBL
EAGLE RIVER    LGT RAIN  34  24  65 S7        29.64F
LAND O LAKES   NOT AVBL
RHINELANDER    CLOUDY    36  23  59 SW12      29.67F
PHILLIPS       MOCLDY    34  23  64 S10       29.65F
ANTIGO         NOT AVBL
TOMAHAWK       NOT AVBL
MERRILL        CLOUDY    36  23  59 S7        29.71F
$$

WIZ013-073-240500-
NORTHEAST WISCONSIN

CITY           SKY/WX    TMP DP  RH WIND       PRES   REMARKS
IRON MOUNTAIN  CLOUDY    35  22  58 S8        29.69F
MARINETTE      CLOUDY    37  27  67 SW9       29.76F
$$

WIZ017-030-035>037-045-240500-
CENTRAL WISCONSIN

CITY           SKY/WX    TMP DP  RH WIND       PRES   REMARKS
MEDFORD        NOT AVBL
WAUSAU         CLOUDY    35  23  61 SE10      29.71F
MOSINEE        CLOUDY    34  25  69 S8        29.74F
MARSHFIELD     CLOUDY    38  22  52 SW14      29.71F
WISC RAPIDS    CLOUDY    36  23  59 S7        29.76F
STEVENS POINT  NOT AVBL
WAUPACA        NOT AVBL
SHAWANO        CLOUDY    37  23  57 SW5       29.77S
CLINTONVILLE   NOT AVBL
WAUTOMA        CLOUDY    33  22  63 S5        29.80F
$$

WIZ038-039-048-051-240500-
FOX VALLEY

CITY           SKY/WX    TMP DP  RH WIND       PRES   REMARKS
NWS GREEN BAY  MOCLDY    33  25  72 S7        29.78F
APPLETON       CLEAR     34  21  60 SW7       29.77F
OSHKOSH        PTCLDY    30  24  78 S9        29.80F
FOND DU LAC    CLEAR     31  23  72 S8        29.82F
$$

WIZ022-050-052-240500-
EAST CENTRAL WISCONSIN

CITY           SKY/WX    TMP DP  RH WIND       PRES   REMARKS
EPHRAIM        NOT AVBL
WASHINGTON ISL NOT AVBL
STURGEON BAY   CLOUDY    35  23  61 S8        29.79F
MANITOWOC      CLEAR     33  22  63 S8        29.82F
SHEBOYGAN      CLEAR     29  23  78 S7        29.83F
$$

LMZ563-521-522-541>543-240500-
LAKESHORE

STATION/POSITION TIME  TEMP    WIND        PRES    VSBY  WAVE
                       AIR SEA DIR/SP/G                  HT/PER
                 (UTC) (F)     (DEG/KT/KT) (MB)    (MI)  (FT/S)
SHEBOYGAN LKSHOR 0300   37     200/  9/  9 1011.7F
KEWAUNEE LKSHORE 0330   36     200/  9/ 11 1009.1F
NORTHPORT PIER   0340   37     170/  3/  8 1008.1F
N MID LAKE BUOY  0250   42 47  210/ 17/ 19 1010.3          3/ 6
SISTER BAY LKSHO 0320   37     200/ 11/ 14   N/A
MENOMINEE LKSHOR 0330   38     200/  8/ 10 1008.3S
$$



USA.gov is the U.S. government's official web portal to all federal, state and local government web resources and services.